User: anonymous   Login
Location: Gerlach
(40.6516°N, 119.3568°W)
Time: 21:00:10
(UTC-08:00)
Language:

TIGRISAT - Orbit

View from above orbital plane
View from above orbital plane
View from above satellite
View from above satellite

Ground track
Ground track

The orbit data is extracted from the following two-line orbital elements,

1 40043U 14033AK  24057.46950064  .00003226  00000-0  44275-3 0  9992
2 40043  97.6812 225.1771 0055359 308.0874  51.5352 14.78003613520953
Epoch (UTC): 26 February 2024 11:16:04
Eccentricity: 0.0055359
inclination: 97.6812°
perigee height: 597 km
apogee height: 674 km
right ascension of ascending node: 225.1771°
argument of perigee: 308.0874°
revolutions per day: 14.78003613
mean anomaly at epoch: 51.5352°
orbit number at epoch: 52095

The dashed part of the orbit path shows where the satellite is in the earth's shadow,  

DLR